When you browse on this site, cookies collect data to enhance your experience and personalize the content and advertising you see.
Visit our Privacy Policy to learn more. By continuing to use the site, you agree to this use of cookies and data.
  • In Hungary
  • List of Countries
  • For 7 days
  • Water Temperature
  • Satellite Maps
  • Weather Map
  • News
  • Weather Widgets
  • user-avatar
    Login

    Hourly Weather Preston

    Today, 21 January, Monday

    Time Temperature Precipitation Wind Pressure Humidity
    00:00 +5°C° 0 mm 1 mps 766 mmHg 94%
    01:00 +4°C° 0 mm 1 mps 766 mmHg 93%
    02:00 +4°C° 0 mm 1 mps 766 mmHg 93%
    03:00 +4°C° 0 mm 1 mps 765 mmHg 92%
    04:00 +4°C° 0 mm 1 mps 765 mmHg 93%
    05:00 +4°C° 0 mm 1 mps 765 mmHg 94%
    06:00 +2°C° 0 mm 2 mps 765 mmHg 94%
    07:00 +3°C° 0 mm 2 mps 765 mmHg 95%
    08:00 +3°C° 0 mm 2 mps 764 mmHg 95%
    09:00 +3°C° 0 mm 2 mps 764 mmHg 96%
    10:00 +3°C° 0 mm 3 mps 763 mmHg 93%
    11:00 +3°C° 0 mm 4 mps 762 mmHg 90%
    12:00 +4°C° 0 mm 4 mps 762 mmHg 87%
    13:00 +4°C° 0 mm 4 mps 761 mmHg 85%
    14:00 +3°C° 0 mm 5 mps 760 mmHg 83%
    15:00 +3°C° 0 mm 5 mps 758 mmHg 80%
    16:00 +3°C° 0 mm 6 mps 757 mmHg 81%
    17:00 +3°C° 0 mm 6 mps 755 mmHg 81%
    18:00 +3°C° 0 mm 6 mps 754 mmHg 82%
    19:00 +3°C° 1.2 mm 7 mps 753 mmHg 83%
    20:00 +2°C° 1.2 mm 8 mps 752 mmHg 84%
    21:00 +2°C° 1.2 mm 9 mps 750 mmHg 85%
    22:00 +2°C° 1.9 mm 8 mps 750 mmHg 82%
    23:00 +3°C° 1.9 mm 7 mps 749 mmHg 79%

    Tomorrow, 22 January, Tuesday

    Time Temperature Precipitation Wind Pressure Humidity
    00:00 +3°C° 1.9 mm 7 mps 749 mmHg 77%
    01:00 +2°C° 0.1 mm 6 mps 749 mmHg 77%
    02:00 +1°C° 0.1 mm 6 mps 749 mmHg 76%
    03:00 +1°C° 0.1 mm 6 mps 748 mmHg 76%
    04:00 +1°C° 0.4 mm 6 mps 748 mmHg 78%
    05:00 +1°C° 0.4 mm 5 mps 748 mmHg 79%
    06:00 0°C° 0.4 mm 5 mps 748 mmHg 81%
    07:00 0°C° 0.5 mm 5 mps 748 mmHg 82%
    08:00 0°C° 0.5 mm 4 mps 748 mmHg 83%
    09:00 +1°C° 0.5 mm 3 mps 748 mmHg 84%
    10:00 +1°C° 0.6 mm 3 mps 747 mmHg 84%
    11:00 +2°C° 0.6 mm 3 mps 747 mmHg 85%
    12:00 +2°C° 0.6 mm 3 mps 747 mmHg 86%
    13:00 +1°C° 0.7 mm 4 mps 746 mmHg 84%
    14:00 +1°C° 0.7 mm 5 mps 746 mmHg 83%
    15:00 +1°C° 0.7 mm 5 mps 746 mmHg 81%
    16:00 0°C° 0.3 mm 5 mps 746 mmHg 82%
    17:00 -1°C° 0.3 mm 4 mps 746 mmHg 82%
    18:00 -1°C° 0.3 mm 4 mps 747 mmHg 83%
    19:00 -2°C° 0.1 mm 4 mps 747 mmHg 83%
    20:00 -1°C° 0.1 mm 3 mps 747 mmHg 82%
    21:00 -1°C° 0.1 mm 3 mps 747 mmHg 82%
    22:00 -1°C° 0 mm 3 mps 747 mmHg 82%
    23:00 -1°C° 0 mm 3 mps 748 mmHg 81%

    Day after tomorrow, 23 January, Wednesday

    Time Temperature Precipitation Wind Pressure Humidity
    00:00 -2°C° 0 mm 3 mps 748 mmHg 80%
    01:00 -2°C° 0 mm 3 mps 748 mmHg 80%
    02:00 -2°C° 0 mm 3 mps 749 mmHg 80%
    03:00 -2°C° 0 mm 3 mps 749 mmHg 80%
    04:00 -2°C° 0 mm 3 mps 749 mmHg 80%
    05:00 -2°C° 0 mm 2 mps 750 mmHg 80%
    06:00 -2°C° 0 mm 2 mps 750 mmHg 79%
    07:00 -2°C° 0 mm 2 mps 751 mmHg 79%
    08:00 -2°C° 0 mm 2 mps 752 mmHg 79%
    09:00 0°C° 0 mm 1 mps 752 mmHg 78%
    10:00 +1°C° 0 mm 1 mps 753 mmHg 77%
    11:00 +2°C° 0 mm 1 mps 753 mmHg 76%
    12:00 +3°C° 0 mm 1 mps 754 mmHg 74%
    13:00 +3°C° 0 mm 1 mps 754 mmHg 75%
    14:00 +2°C° 0 mm 0 mps 754 mmHg 75%
    15:00 +2°C° 0 mm 0 mps 754 mmHg 76%
    16:00 +2°C° 0 mm 1 mps 755 mmHg 76%
    17:00 +2°C° 0 mm 1 mps 755 mmHg 77%
    18:00 +1°C° 0 mm 1 mps 756 mmHg 77%
    19:00 +1°C° 0 mm 1 mps 756 mmHg 79%
    20:00 +1°C° 0 mm 1 mps 757 mmHg 82%
    21:00 +1°C° 0 mm 2 mps 757 mmHg 84%
    22:00 +1°C° 0 mm 2 mps 757 mmHg 86%
    23:00 0°C° 0 mm 3 mps 757 mmHg 88%

    24 January, Thursday

    Time Temperature Precipitation Wind Pressure Humidity
    00:00 0°C° 0 mm 3 mps 757 mmHg 90%
    01:00 0°C° 0.1 mm 3 mps 756 mmHg 90%
    02:00 0°C° 0.1 mm 3 mps 756 mmHg 91%
    03:00 +1°C° 0.1 mm 3 mps 756 mmHg 91%
    04:00 +1°C° 0.4 mm 3 mps 756 mmHg 92%
    05:00 0°C° 0.4 mm 4 mps 755 mmHg 93%
    06:00 0°C° 0.4 mm 4 mps 755 mmHg 95%
    07:00 0°C° 0.1 mm 4 mps 755 mmHg 96%
    08:00 +1°C° 0.1 mm 3 mps 755 mmHg 97%
    09:00 +2°C° 0.1 mm 3 mps 755 mmHg 98%
    10:00 +3°C° 0.5 mm 3 mps 755 mmHg 98%
    11:00 +4°C° 0.5 mm 3 mps 755 mmHg 98%
    12:00 +5°C° 0.5 mm 4 mps 755 mmHg 99%
    13:00 +5°C° 0.3 mm 5 mps 754 mmHg 98%
    14:00 +5°C° 0.3 mm 6 mps 754 mmHg 98%
    15:00 +6°C° 0.3 mm 7 mps 754 mmHg 97%
    16:00 +6°C° 0.1 mm 7 mps 755 mmHg 97%
    17:00 +8°C° 0.1 mm 7 mps 755 mmHg 96%
    18:00 +8°C° 0.1 mm 7 mps 755 mmHg 96%
    19:00 +8°C° 0 mm 7 mps 756 mmHg 96%
    20:00 +8°C° 0 mm 7 mps 756 mmHg 96%
    21:00 +8°C° 0 mm 7 mps 757 mmHg 96%
    22:00 +8°C° 0 mm 7 mps 757 mmHg 96%
    23:00 +8°C° 0 mm 7 mps 757 mmHg 95%

    25 January, Friday

    Time Temperature Precipitation Wind Pressure Humidity
    00:00 +8°C° 0 mm 7 mps 757 mmHg 95%
    01:00 +8°C° 0 mm 6 mps 757 mmHg 96%
    02:00 +8°C° 0 mm 6 mps 757 mmHg 96%
    03:00 +8°C° 0 mm 5 mps 757 mmHg 96%
    04:00 +7°C° 0 mm 6 mps 757 mmHg 96%
    05:00 +7°C° 0 mm 6 mps 756 mmHg 95%
    06:00 +7°C° 0 mm 6 mps 756 mmHg 95%
    07:00 +7°C° 0.1 mm 6 mps 756 mmHg 94%
    08:00 +7°C° 0.1 mm 6 mps 756 mmHg 93%
    09:00 +7°C° 0.1 mm 6 mps 756 mmHg 92%
    10:00 +6°C° 0.1 mm 7 mps 756 mmHg 88%
    11:00 +8°C° 0.1 mm 7 mps 756 mmHg 84%
    12:00 +7°C° 0.1 mm 8 mps 755 mmHg 81%
    13:00 +8°C° 0 mm 7 mps 755 mmHg 82%
    14:00 +8°C° 0 mm 7 mps 754 mmHg 84%
    15:00 +8°C° 0 mm 7 mps 753 mmHg 85%
    16:00 +8°C° 0.2 mm 7 mps 752 mmHg 87%
    17:00 +7°C° 0.2 mm 8 mps 752 mmHg 88%
    18:00 +7°C° 0.2 mm 8 mps 751 mmHg 89%
    19:00 +9°C° 0.1 mm 8 mps 751 mmHg 90%
    20:00 +9°C° 0.1 mm 8 mps 750 mmHg 90%
    21:00 +8°C° 0.1 mm 9 mps 750 mmHg 91%
    22:00 +8°C° 2.1 mm 9 mps 749 mmHg 91%
    23:00 +8°C° 2.1 mm 9 mps 748 mmHg 92%

    26 January, Saturday

    Time Temperature Precipitation Wind Pressure Humidity
    00:00 +8°C° 2.1 mm 9 mps 747 mmHg 93%
    01:00 +9°C° 1.7 mm 8 mps 747 mmHg 93%
    02:00 +9°C° 1.7 mm 8 mps 747 mmHg 93%
    03:00 +9°C° 1.7 mm 7 mps 746 mmHg 93%
    04:00 +6°C° 0.3 mm 7 mps 747 mmHg 88%
    05:00 +5°C° 0.3 mm 7 mps 747 mmHg 84%
    06:00 +4°C° 0.3 mm 7 mps 747 mmHg 80%
    07:00 +3°C° 0 mm 6 mps 748 mmHg 79%
    08:00 +3°C° 0 mm 6 mps 749 mmHg 79%
    09:00 +3°C° 0 mm 5 mps 750 mmHg 78%
    10:00 +3°C° 0 mm 5 mps 750 mmHg 76%
    11:00 +5°C° 0 mm 5 mps 751 mmHg 74%
    12:00 +6°C° 0 mm 5 mps 751 mmHg 71%
    13:00 +4°C° 0.2 mm 6 mps 751 mmHg 72%
    14:00 +4°C° 0.2 mm 6 mps 751 mmHg 73%
    15:00 +4°C° 0.2 mm 7 mps 751 mmHg 74%
    16:00 +4°C° 0.2 mm 7 mps 751 mmHg 75%
    17:00 +3°C° 0.2 mm 6 mps 752 mmHg 75%
    18:00 +3°C° 0.2 mm 6 mps 752 mmHg 76%
    19:00 +2°C° 0.2 mm 6 mps 752 mmHg 76%
    20:00 +2°C° 0.2 mm 6 mps 752 mmHg 76%
    21:00 +2°C° 0.2 mm 5 mps 753 mmHg 75%
    22:00 +2°C° 0.3 mm 5 mps 752 mmHg 76%
    23:00 +2°C° 0.3 mm 5 mps 752 mmHg 77%
    Show more